Westfield, MA

1:38 AM EST on November 23, 2017 (GMT -0500)
Barnes Municipal

Weather History for KBAF - April, 2014

Change the Weather History Date:

Sunday, April 20, 2014

  Actual Average Record
Temperature  
Mean Temperature 46 °F -  
Max Temperature 62 °F 59 °F 87 °F (2005)
Min Temperature 30 °F 36 °F 25 °F (2001)
Degree Days  
Heating Degree Days 20    
Moisture  
Dew Point 22 °F    
Average Humidity 42    
Maximum Humidity 85    
Minimum Humidity 15    
Precipitation  
Precipitation 0.00 in - - ()
Sea Level Pressure  
Sea Level Pressure 30.43 in    
Wind  
Wind Speed 4 mph (South)    
Max Wind Speed 15 mph    
Max Gust Speed 22 mph    
Visibility 10 miles    
Events      
Averages and records for this station are not official NWS values.
T = Trace of Precipitation, MM = Missing Value Source: NWS Daily Summary

Daily Weather History Graph

Daily Weather History Graph

Search for Another Location

Airport or City:

Trip Planner

Search our weather history database for the weather conditions in past years. The results will help you decide how hot, cold, wet, or windy it might be!

Date:

Astronomy

Apr. 20, 2014 Rise Set
Actual Time 6:02 AM EDT 7:37 PM EDT
Civil Twilight 5:32 AM EDT 8:07 PM EDT
Nautical Twilight 4:57 AM EDT 8:43 PM EDT
Astronomical Twilight 4:19 AM EDT 9:21 PM EDT
Moon 12:17 AM EDT (4/20) 10:17 AM EDT (4/20)
Length of Visible Light 14h 34m
Length of Day
13h 35m
Waning Gibbous, 69% of the Moon is Illuminated
Apr 20
Waning Gibbous
Apr 22
Last Quarter
Apr 29
New
May 6
First Quarter
May 14
Full

Hourly Weather History & Observations

Time (EDT) Temp. Windchill Dew Point Humidity Pressure Visibility Wind Dir Wind Speed Gust Speed Precip Events Conditions
12:53 AM 45.0 °F 43.5 °F 25.0 °F 46% 30.43 in 10.0 mi NNE 3.5 mph - N/A   Clear
1:53 AM 42.1 °F 40.2 °F 25.0 °F 51% 30.44 in 10.0 mi North 3.5 mph - N/A   Clear
2:53 AM 36.0 °F - 26.1 °F 67% 30.45 in 10.0 mi Calm Calm - N/A   Clear
3:53 AM 34.0 °F - 26.1 °F 73% 30.45 in 10.0 mi Calm Calm - N/A   Clear
4:53 AM 33.1 °F 30.0 °F 26.1 °F 75% 30.48 in 10.0 mi NNE 3.5 mph - N/A   Clear
5:53 AM 30.0 °F 26.5 °F 26.1 °F 85% 30.49 in 10.0 mi North 3.5 mph - N/A   Clear
6:53 AM 32.0 °F 27.5 °F 27.0 °F 82% 30.52 in 10.0 mi North 4.6 mph - N/A   Clear
7:53 AM 39.0 °F 36.8 °F 28.9 °F 67% 30.52 in 10.0 mi North 3.5 mph - N/A   Clear
8:53 AM 45.0 °F 42.6 °F 27.0 °F 49% 30.52 in 10.0 mi NW 4.6 mph - N/A   Clear
9:53 AM 48.9 °F - 18.0 °F 29% 30.52 in 10.0 mi Calm Calm - N/A   Clear
10:53 AM 51.1 °F - 18.0 °F 27% 30.51 in 10.0 mi Calm Calm - N/A   Clear
11:53 AM 54.0 °F - 16.0 °F 22% 30.49 in 10.0 mi Variable 4.6 mph - N/A   Clear
12:53 PM 55.9 °F - 14.0 °F 19% 30.46 in 10.0 mi Variable 3.5 mph - N/A   Clear
1:53 PM 57.2 °F - 14.0 °F 18% 30.43 in 10.0 mi Calm Calm - N/A   Clear
2:53 PM 60.1 °F - 16.0 °F 18% 30.42 in 10.0 mi South 9.2 mph - N/A   Clear
3:53 PM 61.0 °F - 17.1 °F 18% 30.40 in 10.0 mi WSW 9.2 mph - N/A   Clear
4:53 PM 61.0 °F - 15.1 °F 17% 30.38 in 10.0 mi South 8.1 mph - N/A   Clear
5:53 PM 61.0 °F - 12.0 °F 15% 30.37 in 10.0 mi South 5.8 mph - N/A   Clear
6:53 PM 59.0 °F - 15.1 °F 18% 30.35 in 10.0 mi SSE 8.1 mph - N/A   Clear
7:53 PM 54.0 °F - 24.1 °F 31% 30.36 in 10.0 mi South 15.0 mph 21.9 mph N/A   Clear
8:53 PM 48.9 °F - 26.1 °F 41% 30.37 in 10.0 mi South 11.5 mph - N/A   Clear
9:53 PM 46.9 °F - 27.0 °F 46% 30.37 in 10.0 mi South 8.1 mph - N/A   Clear
10:53 PM 42.1 °F 37.7 °F 26.1 °F 53% 30.36 in 10.0 mi South 6.9 mph - N/A   Clear
11:53 PM 42.1 °F 39.2 °F 25.0 °F 51% 30.34 in 10.0 mi SSE 4.6 mph - N/A   Clear